This is the latest recevied weather packets stored in our database for station/object IK2ILW-4. If no packets are shown the sender has not sent any weather packets the latest 10 day(s).
| Time | Temp. | Humidity | Pressure | Rain* | Wind** | Luminosity | Snow |
|---|---|---|---|---|---|---|---|
| 1778158971 | 10° C | 80% | 1014 hPa | 2.03 mm | - | 376 W/m² | - |
| 1778158667 | 10° C | 79% | 1014.1 hPa | 2.03 mm | - | 359 W/m² | - |
| 1778158367 | 10° C | 81% | 1014.1 hPa | 2.03 mm | - | 1056 W/m² | - |
| 1778158067 | 10° C | 81% | 1014.1 hPa | 2.03 mm | - | 471 W/m² | - |
| 1778157763 | 9.44° C | 81% | 1014 hPa | 2.03 mm | - | 325 W/m² | - |
| 1778157459 | 10° C | 78% | 1014 hPa | 2.03 mm | - | 359 W/m² | - |
| 1778157155 | 10° C | 76% | 1014 hPa | 2.03 mm | - | 269 W/m² | - |
| 1778156853 | 10° C | 78% | 1014.1 hPa | 2.03 mm | - | 1062 W/m² | - |
| 1778156553 | 9.44° C | 78% | 1014.1 hPa | 2.03 mm | - | 418 W/m² | - |
| 1778156273 | 9.44° C | 75% | 1014.1 hPa | 2.03 mm | - | 323 W/m² | - |
| 1778155952 | 8.89° C | 77% | 1014.1 hPa | 2.03 mm | - | 383 W/m² | - |
| 1778155672 | 8.89° C | 78% | 1014.1 hPa | 2.03 mm | - | 241 W/m² | - |
| 1778155366 | 8.89° C | 82% | 1014.1 hPa | 2.03 mm | - | 394 W/m² | - |
| 1778155062 | 9.44° C | 81% | 1014 hPa | 2.03 mm | - | 234 W/m² | - |
| 1778154761 | 9.44° C | 81% | 1014 hPa | 2.03 mm | - | 200 W/m² | - |
| 1778154457 | 10° C | 80% | 1014 hPa | 2.03 mm | - | 155 W/m² | - |
| 1778154170 | 10° C | 78% | 1013.9 hPa | 2.03 mm | - | 163 W/m² | - |
| 1778153865 | 10° C | 78% | 1013.9 hPa | 2.03 mm | - | 148 W/m² | - |
| 1778153560 | 10° C | 76% | 1013.9 hPa | 2.03 mm | - | 206 W/m² | - |
| 1778153260 | 10° C | 77% | 1014 hPa | 2.03 mm | - | 178 W/m² | - |
| 1778152955 | 10° C | 76% | 1014 hPa | 2.03 mm | - | 225 W/m² | - |
| 1778152672 | 10° C | 77% | 1014 hPa | 2.03 mm | - | 230 W/m² | - |
| 1778152368 | 10° C | 79% | 1014.1 hPa | 2.03 mm | - | 221 W/m² | - |
| 1778152068 | 9.44° C | 82% | 1014.1 hPa | 2.03 mm | - | 211 W/m² | - |
| 1778151767 | 9.44° C | 83% | 1014.1 hPa | 2.03 mm | - | 221 W/m² | - |
* Rain since midnight (hover to see other rain measurements)
** Current wind speed in m/s (hover to see current wind gust speed)